[[{"header":{"parameterUnit":"m.s-1","parameterCategory":1,"la1":30.2991,"la2":30.254,"lo1":-89.0895,"lo2":-89.0444,"dy":0.0017,"dx":0.0017,"nx":28,"ny":28,"refTime":"2024-07-26T03:00:00:Z","depth":0,"parameterNumber":2,"parameterNumberName":"U-component_of_WINDS"},"data":[0,0,0,0,0,0,0,0,0,0,0,0,0,0,0,0,0,0,0,0,0,0,0,0,0,0,0,0,0,0,0,0,0,0,0,0,0,0,0,0,0,0,0,0,0,0,0,0,0,0,0,0,0,0,0,0,0,0,0.3263,0.3263,0,0.3238,0.3238,0.3237,0.3219,0.3219,0.3219,0.3219,0.3192,0.3192,0.3191,0,0,0,0,0,0,0,0,0,0,0,0,0,0.3295,0.3294,0.3263,0.3263,0.3263,0.3238,0.3238,0.3237,0.3219,0.3219,0.3219,0.3219,0.3193,0.3192,0.3191,0,0,0,0,0,0,0,0,0,0,0,0,0,0.3276,0.3294,0.3263,0.3251,0.3249,0.3238,0.3238,0.3237,0.3219,0.3219,0.3219,0.3219,0.3193,0.3192,0.3191,0.319,0,0,0.3189,0.3188,0,0,0,0,0,0,0,0,0.3277,0.3275,0.3253,0.3252,0.325,0.3231,0.3239,0.3221,0.3219,0.3231,0.3219,0.3218,0.3206,0.3204,0.3199,0.3189,0.3188,0.3189,0.3188,0.3188,0.3187,0,0,0,0,0,0,0,0.3279,0.3276,0.3253,0.3253,0.3251,0.3246,0.3243,0.3236,0.322,0.323,0.3228,0.3226,0.3205,0.32,0.3199,0.3188,0.3189,0.3188,0.3187,0.3187,0.3174,0.3174,0,0,0,0,0,0,0.3282,0.3277,0.3254,0.3252,0.3263,0.3245,0.3242,0.3238,0.322,0.3217,0.3226,0.3225,0.3202,0.32,0.3198,0.3195,0.3188,0.3187,0.3186,0.3174,0.3174,0.3174,0,0,0,0,0,0,0.3283,0.328,0.3255,0.3264,0.3261,0.3245,0.324,0.3237,0.3233,0.3217,0.3214,0.3224,0.3202,0.3199,0.3192,0.3194,0.3187,0.3186,0.3173,0.3174,0.3174,0.3189,0,0,0,0,0,0,0.3284,0.3281,0.3281,0.3265,0.326,0.325,0.324,0.3237,0.3231,0.323,0.3214,0.3212,0.3201,0.3193,0.3191,0.3192,0.3185,0.3173,0.3174,0.3174,0.3189,0.319,0.3191,0,0,0,0,0,0.3285,0.3286,0.3281,0.3278,0.326,0.3251,0.3248,0.3236,0.3232,0.3231,0.322,0.3212,0.3194,0.3193,0.319,0.3191,0.3173,0.3173,0.3174,0.3188,0.319,0.3191,0,0,0,0,0,0,0.3303,0.3284,0.3278,0.3274,0.3264,0.3248,0.3247,0.3239,0.323,0.3229,0.3214,0.321,0.3205,0.3197,0.3197,0.3188,0.3182,0.3182,0.3194,0.3195,0.3197,0.3199,0.3184,0,0,0,0,0,0.3306,0.33,0.3284,0.3282,0.3277,0.3263,0.3258,0.325,0.3239,0.3235,0.3224,0.3213,0.3205,0.32,0.3191,0.3187,0.3183,0.3186,0.3188,0.3189,0.3189,0.3185,0.3186,0.3175,0.3175,0.3175,0,0,0.3314,0.3302,0.33,0.3285,0.3277,0.327,0.326,0.3254,0.3248,0.3234,0.3226,0.3218,0.3205,0.3199,0.3196,0.3193,0.3191,0.3189,0.319,0.319,0.3185,0.3186,0.3187,0.3175,0.3175,0.3175,0,0,0.3323,0.3315,0.3312,0.3303,0.329,0.328,0.3279,0.3264,0.3257,0.325,0.3238,0.3231,0.3218,0.3208,0.3202,0.3207,0.3198,0.3204,0.3211,0.3208,0.3208,0.3209,0.321,0.3211,0.3204,0.3204,0.3204,0,0.3334,0.3324,0.3311,0.3306,0.3299,0.3285,0.3281,0.3273,0.3258,0.3254,0.325,0.3231,0.3222,0.3213,0.3214,0.3209,0.3207,0.3206,0.3209,0.321,0.321,0.3211,0.3212,0.3205,0.3205,0.3205,0.3205,0,0.3338,0.3331,0.333,0.3315,0.3309,0.3304,0.329,0.3284,0.3276,0.3266,0.3258,0.3245,0.3234,0.3231,0.3223,0.3221,0.3219,0.3212,0.3206,0.3212,0.3213,0.3213,0.3206,0.3206,0.3206,0.3206,0,0,0.3359,0.3336,0.3336,0.3329,0.3312,0.3307,0.3301,0.3289,0.3285,0.3274,0.3268,0.3256,0.3249,0.3242,0.3233,0.323,0.3233,0.3223,0.3223,0.3225,0.3228,0.3233,0.3234,0.3227,0.3227,0.3227,0.3229,0,0.3366,0.3356,0.3343,0.3336,0.3329,0.3315,0.3309,0.3298,0.3288,0.3281,0.327,0.3261,0.3254,0.3249,0.3245,0.3233,0.3233,0.3233,0.3221,0.322,0.3224,0.3234,0.3239,0.3242,0.3229,0.3229,0.3229,0,0.3374,0.3363,0.3356,0.3339,0.3336,0.3331,0.3319,0.3312,0.3298,0.3291,0.3282,0.3272,0.3264,0.3258,0.3246,0.3246,0.324,0.3233,0.3233,0.3232,0.3225,0.3233,0.3243,0.3244,0.323,0.323,0.323,0,0.3389,0.3374,0.3367,0.3361,0.3341,0.3338,0.333,0.3316,0.331,0.3298,0.3294,0.3282,0.3275,0.3266,0.3252,0.3249,0.3241,0.3234,0.3235,0.3235,0.3234,0.3234,0.3244,0.323,0.323,0.323,0.323,0,0.3399,0.3395,0.3374,0.337,0.3364,0.3349,0.3344,0.3334,0.3321,0.3314,0.3301,0.3295,0.3277,0.3268,0.3257,0.3248,0.3245,0.3239,0.3236,0.324,0.3241,0.3236,0.3236,0.323,0.323,0.323,0.323,0,0.3416,0.3402,0.3393,0.3375,0.337,0.3367,0.3351,0.3345,0.3334,0.3326,0.3323,0.3305,0.3294,0.3279,0.3263,0.3256,0.3248,0.3244,0.3253,0.3251,0.3252,0.3252,0.3259,0.3258,0.3246,0.3246,0.3246,0,0.3423,0.3419,0.34,0.3394,0.3386,0.3378,0.337,0.3355,0.3348,0.3331,0.3328,0.3315,0.3305,0.3287,0.3273,0.326,0.3255,0.3258,0.3253,0.3257,0.3255,0.3255,0.3254,0.326,0.326,0.326,0.326,0,0.3436,0.3429,0.342,0.3407,0.3399,0.3388,0.3377,0.3373,0.3355,0.3347,0.3336,0.3327,0.3311,0.3298,0.3283,0.3274,0.3264,0.3262,0.3261,0.3265,0.327,0.3267,0.3256,0.3262,0.3262,0.3262,0.3262,0.3261,0.3448,0.3444,0.3429,0.3419,0.3408,0.3398,0.3392,0.338,0.337,0.3355,0.3346,0.3334,0.3319,0.3299,0.3289,0.3279,0.3275,0.3275,0.3274,0.3274,0.3275,0.3272,0.3276,0.3276,0.3276,0.3276,0.3276,0,0.346,0.345,0.344,0.3425,0.3416,0.3407,0.3394,0.3387,0.3377,0.3364,0.3354,0.334,0.3327,0.3311,0.3297,0.3292,0.3287,0.3289,0.3289,0.3287,0.328,0.3282,0.3293,0.3293,0.3293,0.3293,0.3293,0.3293,0.3466,0.3458,0.3449,0.3435,0.3424,0.3413,0.3406,0.3396,0.3385,0.337,0.336,0.3349,0.3335,0.3319,0.3307,0.3302,0.3298,0.3301,0.3295,0.3289,0.3287,0.3286,0.3288,0.33,0.33,0.3302,0.3302,0.3303]},{"header":{"parameterUnit":"m.s-1","parameterCategory":1,"la1":30.2991,"la2":30.254,"lo1":-89.0895,"lo2":-89.0444,"dy":0.0017,"dx":0.0017,"nx":28,"ny":28,"refTime":"2024-07-26T03:00:00:Z","depth":0,"parameterNumber":3,"parameterNumberName":"V-component_of_WINDS"},"data":[0,0,0,0,0,0,0,0,0,0,0,0,0,0,0,0,0,0,0,0,0,0,0,0,0,0,0,0,0,0,0,0,0,0,0,0,0,0,0,0,0,0,0,0,0,0,0,0,0,0,0,0,0,0,0,0,0,0,2.9101,2.9101,0,2.9059,2.9058,2.9058,2.9019,2.9018,2.9018,2.9017,2.8971,2.8971,2.897,0,0,0,0,0,0,0,0,0,0,0,0,0,2.9145,2.9145,2.9101,2.9101,2.91,2.9059,2.9058,2.9058,2.9019,2.9018,2.9017,2.9017,2.8972,2.8971,2.897,0,0,0,0,0,0,0,0,0,0,0,0,0,2.9117,2.9145,2.9101,2.9076,2.9073,2.9059,2.9058,2.9058,2.9019,2.9018,2.9017,2.9017,2.8972,2.8971,2.897,2.8977,0,0,2.8966,2.8966,0,0,0,0,0,0,0,0,2.9119,2.9115,2.908,2.9077,2.9074,2.9043,2.9057,2.9031,2.9019,2.9039,2.9017,2.9016,2.8996,2.8993,2.8986,2.8975,2.8973,2.8966,2.8965,2.8965,2.8965,0,0,0,0,0,0,0,2.9121,2.9117,2.9084,2.9079,2.9076,2.9065,2.9061,2.9052,2.9022,2.9037,2.9034,2.903,2.8994,2.8987,2.8985,2.8972,2.8966,2.8965,2.8964,2.8964,2.8964,2.8965,0,0,0,0,0,0,2.9127,2.9119,2.9086,2.9083,2.9095,2.9065,2.906,2.9054,2.9022,2.9016,2.9031,2.9028,2.899,2.8986,2.8983,2.8989,2.8965,2.8964,2.8963,2.8964,2.8965,2.8965,0,0,0,0,0,0,2.9128,2.9124,2.9087,2.91,2.9095,2.9065,2.9059,2.9053,2.9047,2.9017,2.9011,2.903,2.8989,2.8985,2.8979,2.8987,2.8963,2.8962,2.8963,2.8964,2.8965,2.9001,0,0,0,0,0,0,2.9129,2.9125,2.9128,2.9101,2.9094,2.9085,2.9059,2.9053,2.9045,2.9042,2.9014,2.9009,2.8988,2.8981,2.8978,2.8985,2.8961,2.8962,2.8963,2.8965,2.8999,2.9003,2.9007,0,0,0,0,0,2.9131,2.9139,2.9128,2.9124,2.9097,2.9085,2.9081,2.9058,2.9046,2.9048,2.9029,2.901,2.8987,2.8981,2.8977,2.8983,2.8961,2.8963,2.8965,2.8997,2.9002,2.9007,0,0,0,0,0,0,2.9167,2.9135,2.9122,2.9122,2.9107,2.9079,2.908,2.9064,2.9051,2.9048,2.9019,2.9013,2.901,2.8996,2.899,2.8989,2.8971,2.8972,2.8998,2.9002,2.9006,2.9009,2.896,0,0,0,0,0,2.9175,2.9169,2.9141,2.9143,2.9136,2.911,2.9104,2.9087,2.907,2.9063,2.9043,2.9026,2.9015,2.9008,2.8996,2.8998,2.899,2.9,2.9004,2.9008,2.9008,2.9007,2.9011,2.8971,2.8971,2.8971,0,0,2.9191,2.9173,2.917,2.915,2.9136,2.9129,2.9105,2.9098,2.9093,2.9061,2.9055,2.904,2.9019,2.9017,2.9015,2.9005,2.9018,2.901,2.9013,2.9011,2.9009,2.9013,2.9016,2.8972,2.8971,2.8971,0,0,2.9216,2.9203,2.9203,2.919,2.917,2.9152,2.9153,2.9127,2.9116,2.911,2.9086,2.9079,2.906,2.9046,2.9037,2.9058,2.904,2.9055,2.9075,2.9074,2.9077,2.908,2.9087,2.9089,2.9056,2.9056,2.9057,0,2.9238,2.9228,2.9205,2.92,2.9191,2.9164,2.9164,2.9152,2.9129,2.9123,2.9113,2.909,2.9074,2.9067,2.9073,2.9066,2.9065,2.9057,2.9079,2.9081,2.9084,2.9089,2.9092,2.9058,2.9058,2.9058,2.9058,0,2.9256,2.9249,2.9251,2.923,2.9222,2.922,2.9195,2.919,2.9175,2.9158,2.9151,2.9132,2.9115,2.9113,2.9097,2.9104,2.9099,2.9085,2.9066,2.909,2.9095,2.9097,2.9061,2.906,2.906,2.9059,0,0,2.93,2.9268,2.9269,2.9259,2.9236,2.9229,2.9226,2.9211,2.9206,2.9191,2.9187,2.9172,2.9159,2.9148,2.9131,2.9131,2.9148,2.9116,2.9115,2.9122,2.9154,2.9163,2.9166,2.9137,2.9137,2.9137,2.9155,0,2.9321,2.9313,2.9292,2.929,2.9283,2.9258,2.9255,2.924,2.9225,2.9216,2.9199,2.9189,2.9173,2.9166,2.9165,2.9146,2.9154,2.9145,2.9131,2.913,2.9135,2.9169,2.9179,2.9197,2.9157,2.9157,2.9157,0,2.9343,2.9331,2.9328,2.9305,2.9302,2.9299,2.9283,2.9276,2.9258,2.9247,2.9236,2.9218,2.9212,2.9196,2.9187,2.9182,2.9175,2.9165,2.9165,2.9161,2.9144,2.9165,2.9202,2.9204,2.916,2.916,2.916,0,2.9374,2.9357,2.9354,2.9346,2.932,2.9318,2.9307,2.9289,2.9281,2.9268,2.9262,2.9248,2.924,2.9229,2.9207,2.9198,2.92,2.9183,2.9189,2.919,2.9189,2.9189,2.9224,2.9188,2.9188,2.9188,2.9188,0,2.9398,2.9397,2.9367,2.9365,2.9363,2.934,2.9339,2.9325,2.9309,2.9303,2.9281,2.9275,2.9247,2.9238,2.9221,2.9216,2.9212,2.9203,2.9198,2.9204,2.9205,2.9197,2.9195,2.9188,2.9188,2.9188,2.9188,0,2.9431,2.9412,2.9406,2.9382,2.9376,2.9376,2.9354,2.9351,2.9335,2.9328,2.9325,2.93,2.9288,2.9266,2.9248,2.9237,2.9234,2.9227,2.924,2.9237,2.9245,2.9244,2.9274,2.9277,2.9241,2.9241,2.9242,0,2.9447,2.9446,2.9422,2.9417,2.9407,2.9399,2.9391,2.9369,2.9361,2.9342,2.934,2.9328,2.9316,2.9299,2.9278,2.9264,2.9255,2.9267,2.9253,2.9259,2.9254,2.9254,2.9253,2.927,2.927,2.9271,2.9271,0,2.9476,2.9467,2.9457,2.9444,2.9436,2.9425,2.9412,2.9409,2.9383,2.9376,2.9365,2.9356,2.9338,2.9325,2.9309,2.9296,2.9279,2.9276,2.9277,2.9282,2.9289,2.9284,2.9247,2.9275,2.9275,2.9274,2.9274,2.9274,2.95,2.9498,2.9481,2.9471,2.946,2.9448,2.9444,2.9428,2.9419,2.9403,2.9391,2.938,2.9362,2.9339,2.9327,2.9318,2.931,2.9311,2.9311,2.9311,2.9313,2.9293,2.9315,2.9315,2.9315,2.9315,2.9315,0,2.9527,2.9515,2.9507,2.949,2.9482,2.9469,2.9454,2.9448,2.9439,2.9425,2.9415,2.9401,2.9389,2.9369,2.9354,2.9351,2.9343,2.9348,2.9347,2.9344,2.9322,2.9322,2.9355,2.9355,2.9355,2.9355,2.9355,2.9355,2.954,2.9535,2.9524,2.9514,2.9502,2.9492,2.9485,2.9474,2.9463,2.9449,2.9439,2.9427,2.941,2.9394,2.9382,2.9376,2.9371,2.9379,2.937,2.935,2.9346,2.9342,2.9342,2.9378,2.9378,2.9393,2.9393,2.9393]}]]